Location: Il Ritiro
(43.4167°N, 13.1333°E)
Time: 16:53:58
(UTC+00:00)

Genesis I - Pass Details

Date: 05 July 2020
Orbit: 510 x 513 km, 64.5° (Epoch: 10 August)

Event Time Altitude Azimuth Distance (km) Brightness Sun altitude
Exits shadow 22:18:43 52° 271° (W) 639 3.6 -22.8°
Maximum altitude 22:19:14 58° 307° (NW) 599 3.6 -22.8°
Drops below altitude 10° 22:23:04 10° 28° (NNE) 1,736 6.5 -23.0°
Sets 22:25:16 0° 32° (NNE) 2,626 7.5 -23.0°
